CDT,Max TemperatureF,Mean TemperatureF,Min TemperatureF,Max Dew PointF,MeanDew PointF,Min DewpointF,Max Humidity, Mean Humidity, Min Humidity, Max Sea Level PressureIn, Mean Sea Level PressureIn, Min Sea Level PressureIn, Max VisibilityMiles, Mean VisibilityMiles, Min VisibilityMiles, Max Wind SpeedMPH, Mean Wind SpeedMPH, Max Gust SpeedMPH,PrecipitationIn, CloudCover, Events, WindDirDegrees
2011-10-1,66,56,46,46,43,36,93,71,32,30.24,30.15,30.08,10,10,10,14,5,23,0.00,0,,7
2011-10-2,69,56,42,46,40,32,100,70,25,30.29,30.22,30.19,10,10,10,12,3,,0.00,0,,13
2011-10-3,73,56,39,57,42,37,100,71,27,30.30,30.23,30.20,10,10,10,7,0,,0.00,0,,350
2011-10-4,78,61,44,52,46,41,100,74,26,30.32,30.24,30.20,10,10,10,4,0,,0.00,0,,110
2011-10-5,82,65,48,55,51,48,100,76,34,30.26,30.20,30.14,10,10,10,7,1,,0.00,0,,113
2011-10-6,82,68,55,57,55,52,100,74,37,30.23,30.18,30.16,10,10,10,13,4,,0.00,1,,129
2011-10-7,82,68,55,61,57,55,100,81,42,30.30,30.24,30.20,10,10,10,13,5,,0.00,0,,123
2011-10-8,80,68,55,59,57,55,100,80,42,30.31,30.25,30.19,10,10,10,14,5,21,0.00,0,,116
2011-10-9,80,68,55,61,57,52,100,76,39,30.26,30.19,30.10,10,10,10,12,6,,0.00,1,,107
2011-10-10,77,67,57,64,60,57,100,86,61,30.14,30.08,30.00,10,10,10,9,5,,0.00,3,,100
2011-10-11,78,68,57,63,61,57,100,91,54,30.01,29.95,29.87,10,10,10,9,2,,0.00,4,,130
2011-10-12,68,62,55,64,60,55,100,98,83,29.91,29.84,29.73,10,6,0,9,3,16,0.01,8,Fog,168
2011-10-13,73,65,57,61,56,46,100,82,41,29.84,29.74,29.67,10,10,8,20,8,25,0.01,5,,260
2011-10-14,78,63,48,52,47,43,100,68,28,30.00,29.91,29.84,10,10,10,10,4,,0.00,1,,250
2011-10-15,75,62,50,48,44,37,87,60,25,30.16,30.08,30.00,10,10,10,8,3,,0.00,0,,42
2011-10-16,84,68,51,55,49,45,88,65,27,30.10,30.03,29.95,10,10,10,17,7,29,0.00,0,,194
2011-10-17,84,70,55,61,56,52,100,72,37,29.96,29.88,29.75,10,10,10,13,6,,0.00,1,,188
2011-10-18,66,55,44,61,52,45,100,93,77,29.84,29.76,29.68,10,8,3,16,8,28,0.00,5,Rain,302
2011-10-19,48,44,39,46,41,37,100,87,71,29.91,29.81,29.76,10,10,10,18,12,24,0.00,5,,310
2011-10-20,57,47,37,37,37,36,100,78,44,30.10,29.99,29.90,10,10,10,13,6,22,0.00,1,,269
2011-10-21,62,48,33,39,36,32,100,78,32,30.24,30.16,30.11,10,10,10,9,2,,0.00,0,,299
2011-10-22,71,54,37,48,40,36,100,77,35,30.22,30.14,30.07,10,10,10,8,1,,0.00,1,,175
2011-10-23,57,50,44,54,45,41,100,84,67,30.14,30.07,30.04,10,10,10,8,4,,0.00,2,Rain,162
2011-10-24,71,55,39,57,48,39,100,93,57,30.26,30.18,30.12,10,6,0,6,1,,0.00,5,Fog,203
2011-10-25,78,61,44,55,50,45,100,84,34,30.23,30.15,30.03,10,10,10,14,3,,0.00,0,,181
2011-10-26,78,66,53,61,56,52,100,83,53,30.03,29.97,29.88,10,10,10,20,9,17,0.00,3,,188
2011-10-27,64,55,46,61,52,46,100,88,68,30.07,29.95,29.85,8,6,2,15,10,17,0.00,7,,347
2011-10-28,53,46,39,46,43,36,100,92,54,30.19,30.10,30.01,10,8,3,17,10,23,0.56,6,Rain,18
2011-10-29,60,46,32,39,35,28,100,80,29,30.25,30.18,30.15,10,10,10,12,1,,0.00,0,,314
2011-10-30,71,52,33,37,34,32,100,76,27,30.27,30.19,30.14,10,10,10,14,2,,0.00,2,,188
2011-10-31,66,52,37,43,36,28,100,74,24,30.21,30.18,30.15,10,10,10,9,5,,0.00,0,,198